Weather History for KAIG - January, 2013

Change the Weather History Date:

Monday, January 7, 2013

  Actual Average Record
Temperature  
Mean Temperature 20 °F -  
Max Temperature 33 °F 19 °F 40 °F (1949)
Min Temperature 8 °F 1 °F -29 °F (1968)
Degree Days  
Heating Degree Days 44    
Moisture  
Dew Point 16 °F    
Average Humidity 77    
Maximum Humidity 94    
Minimum Humidity 63    
Precipitation  
Precipitation 0.00 in - - ()
Sea Level Pressure  
Sea Level Pressure 29.93 in    
Wind  
Wind Speed 11 mph (SW)    
Max Wind Speed 24 mph    
Max Gust Speed 32 mph    
Visibility 10 miles    
Events      
Averages and records for this station are not official NWS values.
T = Trace of Precipitation, MM = Missing Value Source: NWS Daily Summary

Daily Weather History Graph

Daily Weather History Graph

Search for Another Location

Airport or City:

Trip Planner

Search our weather history database for the weather conditions in past years. The results will help you decide how hot, cold, wet, or windy it might be!

Date:

Astronomy

Jan. 07, 2013 Rise Set
Actual Time 7:34 AM CST 4:31 PM CST
Civil Twilight 7:01 AM CST 5:04 PM CST
Nautical Twilight 6:24 AM CST 5:41 PM CST
Astronomical Twilight 5:48 AM CST 6:17 PM CST
Moon 2:55 AM CST (1/7) 12:44 PM CST (1/7)
Length of Visible Light 10h 03m
Length of Day
8h 56m
Waning Crescent, 22% of the Moon is Illuminated
Jan 7
Waning Crescent
Jan 11
New
Jan 18
First Quarter
Jan 26
Full
Feb 3
Last Quarter

Hourly Weather History & Observations

Time (CST) Temp. Windchill Dew Point Humidity Pressure Visibility Wind Dir Wind Speed Gust Speed Precip Events Conditions
12:15 AM 10.4 °F 4.0 °F 8.4 °F 92% 30.12 in 4.0 mi SSW 3.5 mph - N/A   Clear
12:35 AM 9.5 °F -1.5 °F 7.3 °F 91% 30.11 in 10.0 mi SSW 6.9 mph - N/A   Clear
12:55 AM 9.9 °F -1.1 °F 7.7 °F 91% 30.10 in 10.0 mi SSW 6.9 mph - N/A   Clear
1:15 AM 10.2 °F 2.0 °F 7.9 °F 90% 30.10 in 10.0 mi SSW 4.6 mph - N/A   Clear
1:35 AM 8.1 °F -0.5 °F 5.5 °F 89% 30.09 in 10.0 mi South 4.6 mph - N/A   Clear
1:55 AM 8.6 °F -1.3 °F 6.1 °F 89% 30.09 in 10.0 mi SSW 5.8 mph - N/A   Clear
2:15 AM 8.4 °F -2.8 °F 5.9 °F 89% 30.09 in 10.0 mi SSW 6.9 mph - N/A   Clear
2:35 AM 11.1 °F -3.2 °F 8.6 °F 90% 30.07 in 10.0 mi South 11.5 mph - N/A   Clear
2:55 AM 11.3 °F -2.9 °F 8.2 °F 87% 30.06 in 10.0 mi SSW 11.5 mph - N/A   Clear
3:15 AM 13.5 °F -0.2 °F 6.1 °F 72% 30.05 in 10.0 mi SSW 11.5 mph - N/A   Clear
3:35 AM 13.1 °F -1.4 °F 5.0 °F 70% 30.03 in 10.0 mi South 12.7 mph - N/A   Clear
3:55 AM 12.6 °F -2.0 °F 5.4 °F 73% 30.02 in 10.0 mi South 12.7 mph - N/A   Clear
4:15 AM 13.1 °F -2.0 °F 5.9 °F 73% 30.00 in 10.0 mi SSW 13.8 mph - N/A   Clear
4:35 AM 13.1 °F -2.0 °F 6.3 °F 74% 29.99 in 10.0 mi South 13.8 mph - N/A   Clear
4:55 AM 12.7 °F -1.8 °F 6.6 °F 77% 29.98 in 10.0 mi SSW 12.7 mph - N/A   Clear
5:15 AM 13.5 °F -0.9 °F 7.5 °F 77% 29.99 in 10.0 mi SW 12.7 mph - N/A   Clear
5:35 AM 13.1 °F 0.9 °F 7.7 °F 79% 29.98 in 10.0 mi SSW 9.2 mph - N/A   Clear
5:55 AM 12.7 °F -0.4 °F 7.9 °F 81% 29.96 in 10.0 mi SSW 10.4 mph - N/A   Clear
6:35 AM 15.6 °F 1.8 °F 10.4 °F 80% 29.95 in 10.0 mi SSW 12.7 mph - N/A   Clear
6:55 AM 17.2 °F 2.7 °F 11.3 °F 78% 29.94 in 10.0 mi SSW 15.0 mph - N/A   Clear
7:15 AM 18.0 °F 3.1 °F 12.0 °F 78% 29.94 in 10.0 mi SSW 16.1 mph - N/A   Clear
7:35 AM 19.0 °F 4.5 °F 12.9 °F 77% 29.93 in 10.0 mi SSW 16.1 mph - N/A   Clear
7:55 AM 20.5 °F 5.9 °F 13.6 °F 75% 29.92 in 10.0 mi SSW 17.3 mph 23.0 mph N/A   Clear
8:15 AM 21.2 °F 6.4 °F 14.0 °F 74% 29.92 in 10.0 mi SSW 18.4 mph 21.9 mph N/A   Clear
8:35 AM 21.7 °F 11.5 °F 14.0 °F 72% 29.94 in 10.0 mi WSW 9.2 mph 18.4 mph N/A   Clear
8:55 AM 21.6 °F 8.8 °F 14.2 °F 73% 29.93 in 10.0 mi SW 13.8 mph - N/A   Clear
9:15 AM 22.8 °F 8.5 °F 14.9 °F 72% 29.92 in 10.0 mi SW 18.4 mph 21.9 mph N/A   Clear
9:35 AM 24.1 °F 10.1 °F 15.6 °F 70% 29.92 in 10.0 mi SW 18.4 mph 28.8 mph N/A   Clear
9:55 AM 25.5 °F 13.3 °F 16.3 °F 68% 29.92 in 10.0 mi SW 15.0 mph 26.5 mph N/A   Clear
10:15 AM 26.6 °F 12.7 °F 16.7 °F 66% 29.91 in 10.0 mi SW 20.7 mph 25.3 mph N/A   Clear
10:35 AM 27.5 °F 14.2 °F 17.6 °F 66% 29.90 in 10.0 mi SW 19.6 mph 25.3 mph N/A   Clear
10:55 AM 28.6 °F 16.0 °F 18.5 °F 66% 29.89 in 10.0 mi SW 18.4 mph 24.2 mph N/A   Clear
11:15 AM 30.0 °F 16.6 °F 19.2 °F 64% 29.87 in 10.0 mi SW 23.0 mph 26.5 mph N/A   Clear
11:35 AM 30.6 °F 17.0 °F 19.4 °F 63% 29.87 in 10.0 mi WSW 24.2 mph 28.8 mph N/A   Clear
11:55 AM 30.9 °F 18.7 °F 20.1 °F 64% 29.86 in 10.0 mi SW 19.6 mph 32.2 mph N/A   Clear
12:15 PM 31.1 °F 19.3 °F 20.3 °F 64% 29.85 in 10.0 mi SW 18.4 mph 25.3 mph N/A   Clear
12:35 PM 31.6 °F 19.7 °F 20.8 °F 64% 29.84 in 10.0 mi WSW 19.6 mph 24.2 mph N/A   Clear
1:15 PM 32.0 °F 20.8 °F 21.9 °F 66% 29.83 in 10.0 mi WSW 17.3 mph 25.3 mph N/A   Clear
1:35 PM 32.5 °F 20.8 °F 22.1 °F 65% 29.83 in 10.0 mi WSW 19.6 mph 24.2 mph N/A   Clear
1:55 PM 33.3 °F 22.1 °F 22.8 °F 66% 29.83 in 10.0 mi WSW 18.4 mph 24.2 mph N/A   Clear
2:15 PM 32.5 °F 21.2 °F 22.8 °F 67% 29.85 in 10.0 mi WSW 18.4 mph 26.5 mph N/A   Clear
2:35 PM 32.5 °F 22.7 °F 22.8 °F 67% 29.85 in 10.0 mi WSW 13.8 mph - N/A   Clear
2:55 PM 32.4 °F 21.3 °F 22.8 °F 68% 29.84 in 10.0 mi WSW 17.3 mph 25.3 mph N/A   Clear
3:15 PM 32.0 °F 20.5 °F 23.0 °F 69% 29.85 in 10.0 mi WSW 18.4 mph 25.3 mph N/A   Clear
3:35 PM 32.0 °F 21.2 °F 23.0 °F 69% 29.85 in 10.0 mi WSW 16.1 mph 20.7 mph N/A   Clear
3:55 PM 31.5 °F 22.3 °F 22.8 °F 70% 29.86 in 10.0 mi WSW 11.5 mph - N/A   Clear
4:15 PM 30.2 °F 21.3 °F 22.5 °F 73% 29.87 in 10.0 mi WSW 10.4 mph - N/A   Clear
4:35 PM 30.0 °F 21.7 °F 22.5 °F 73% 29.87 in 10.0 mi WSW 9.2 mph - N/A   Clear
5:15 PM 29.1 °F 19.4 °F 22.1 °F 75% 29.87 in 10.0 mi WSW 11.5 mph - N/A   Clear
5:35 PM 29.1 °F 19.4 °F 22.1 °F 75% 29.87 in 10.0 mi WSW 11.5 mph - N/A   Clear
5:55 PM 28.9 °F 19.8 °F 22.1 °F 76% 29.87 in 10.0 mi WSW 10.4 mph - N/A   Clear
6:15 PM 28.2 °F 18.9 °F 21.9 °F 77% 29.88 in 10.0 mi SW 10.4 mph - N/A   Clear
6:35 PM 27.0 °F 18.7 °F 21.2 °F 79% 29.89 in 10.0 mi WSW 8.1 mph - N/A   Clear
6:55 PM 25.9 °F 17.4 °F 20.7 °F 81% 29.89 in 10.0 mi WSW 8.1 mph - N/A   Clear
7:15 PM 27.0 °F 18.0 °F 21.4 °F 79% 29.90 in 10.0 mi WSW 9.2 mph - N/A   Clear
7:35 PM 25.5 °F 16.2 °F 20.8 °F 82% 29.90 in 10.0 mi WSW 9.2 mph - N/A   Clear
7:55 PM 25.0 °F 15.5 °F 20.5 °F 83% 29.90 in 10.0 mi WSW 9.2 mph - N/A   Clear
8:15 PM 25.5 °F 15.5 °F 20.8 °F 82% 29.90 in 10.0 mi WSW 10.4 mph - N/A   Clear
8:35 PM 25.9 °F 15.3 °F 21.2 °F 82% 29.90 in 10.0 mi WSW 11.5 mph - N/A   Clear
8:55 PM 25.5 °F 15.5 °F 21.2 °F 84% 29.90 in 10.0 mi WSW 10.4 mph - N/A   Clear
9:35 PM 24.4 °F 14.9 °F 20.8 °F 86% 29.91 in 10.0 mi WSW 9.2 mph - N/A   Clear
9:55 PM 24.4 °F 14.9 °F 20.8 °F 86% 29.91 in 10.0 mi WSW 9.2 mph - N/A   Clear
10:15 PM 24.4 °F 14.2 °F 20.8 °F 86% 29.92 in 10.0 mi WSW 10.4 mph - N/A   Clear
10:35 PM 24.3 °F 15.4 °F 20.8 °F 87% 29.93 in 10.0 mi WSW 8.1 mph - N/A   Clear
10:55 PM 23.7 °F 15.6 °F 20.5 °F 87% 29.93 in 10.0 mi SW 6.9 mph - N/A   Clear
11:15 PM 21.2 °F 16.4 °F 18.5 °F 89% 29.93 in 10.0 mi SW 3.5 mph - N/A   Clear
11:35 PM 21.7 °F 15.5 °F 19.9 °F 93% 29.94 in 10.0 mi SW 4.6 mph - N/A   Clear
11:55 PM 19.6 °F 13.0 °F 18.1 °F 94% 29.93 in 10.0 mi WSW 4.6 mph - N/A   Clear